Location: Writing-on-Stone Provincial Park
(49.0825°N, 111.6163°W)
Time: 04:50:15
(UTC-07:00)

Daily predictions for brighter satellites

Satellite Brightness Start Highest point End
(mag) Time Altitude Azimuth Time Altitude Azimuth Time Altitude Azimuth
CENTAUR R/B 4.1 03:56:21 31° NE 03:56:21 31° NE 03:59:54 10° NE
Cosmos 2369 Rocket 3.9 04:13:48 29° ESE 04:13:48 29° ESE 04:16:44 10° SE
Lacrosse 4 Rocket 4.5 04:19:38 12° ENE 04:19:38 12° ENE 04:20:14 10° E
ATLAS 3B R/B 4.3 04:19:21 24° N 04:19:21 24° N 04:24:02 10° NE
ADEOS II 4.3 04:25:15 10° NNE 04:26:31 17° NNE 04:26:31 17° NNE
Cosmos 1943 Rocket 3.3 04:37:39 37° NE 04:37:44 37° NE 04:42:49 10° ESE
Cosmos 2184 Rocket 4.4 04:52:19 53° NNE 04:52:19 53° NNE 04:57:01 10° N
CZ-4C R/B 4.1 04:50:00 24° N 04:50:52 25° NNE 04:56:33 10° ENE
Cosmos 2333 Rocket 4.4 04:59:02 13° N 04:59:02 13° N 04:59:48 10° N
COSMO-SKYMED 1 3.6 05:02:01 10° SE 05:05:46 45° E 05:05:46 45° E
Cosmos 1536 4.5 05:03:23 10° SSE 05:08:01 31° ENE 05:10:48 10° NNE
Cosmos 2154 Rocket 4.4 05:01:10 10° S 05:07:15 61° E 05:13:22 10° NNE
SL-16 R/B 3.8 05:11:04 22° N 05:11:04 22° N 05:13:19 10° NNE
Lacrosse 5 2.1 05:10:49 68° E 05:10:49 68° E 05:15:21 10° ENE
Feng Yun 1-1 Rocket 4.1 05:12:20 10° NNE 05:17:58 86° ESE 05:21:44 21° SSW
Cosmos 44 3.7 05:19:32 47° S 05:20:54 65° SE 05:26:00 10° NE
Cosmos 1340 4.0 05:22:07 38° ENE 05:22:20 38° ENE 05:25:54 10° SE
Cosmos 1610 Rocket 4.3 05:18:07 10° SSW 05:24:20 79° W 05:30:40 10° N
Lacrosse 5 rocket 2.9 05:25:39 28° NNE 05:25:39 28° NNE 05:28:56 10° ENE
Cosmos 2263 4.0 05:28:14 71° W 05:28:26 72° WSW 05:34:00 10° SSE
Cosmos 1420 Rocket 4.0 05:28:59 50° N 05:30:21 78° ENE 05:35:34 10° SSE
Cosmos 2237 Rocket 4.2 05:37:01 13° N 05:37:01 13° N 05:38:15 10° N
SKYMED 3 4.4 05:31:49 10° SSE 05:36:10 89° W 05:36:10 89° W
Ariane Rocket 4.0 05:35:28 10° NNE 05:40:21 47° E 05:45:13 10° S
Meteor 1-19 Rocket 4.3 05:42:53 49° WNW 05:43:52 56° W 05:49:28 10° S
CENTAUR R/B 3.5 05:43:33 31° NW 05:44:30 33° NNW 05:51:06 10° NE
Meteor 2-13 Rocket 4.3 05:40:13 10° SSW 05:46:23 76° W 05:52:33 10° N
ATLAS 5 CENTAUR R/B 3.8 05:48:23 19° NNW 05:51:01 26° NNE 05:56:03 10° ENE
Nadezhda 3 Rocket 4.1 05:49:04 19° NNW 05:53:29 53° W 05:59:37 10° SSW
SKYMED 2 3.5 05:49:55 10° S 05:54:12 60° W 05:54:22 59° W
Cosmos 2369 Rocket 2.9 05:55:40 34° WSW 05:55:40 34° WSW 06:00:13 10° S
Lacrosse 4 Rocket 1.2 05:56:01 66° WNW 05:56:26 74° WSW 06:00:29 10° SSE
DMSP B5D1-3 4.4 05:52:05 10° S 05:57:14 73° WSW 06:00:47 21° NNW
Cosmos 1025 Rocket 3.0 05:57:50 55° W 05:57:52 55° W 06:02:06 10° S
SL-23 DEB 4.5 06:00:59 31° SSW 06:00:59 31° SSW 06:03:38 10° SSE
Meteor 1-11 Rocket 3.8 05:58:30 10° SSW 06:04:10 55° WNW 06:09:44 10° N
Meteor 2-4 Rocket 3.8 06:02:21 27° NNW 06:05:10 51° W 06:10:39 10° SSW
Meteor 1-23 Rocket 4.2 06:01:39 20° NNW 06:05:25 58° W 06:10:51 10° S
Cosmos 1603 4.3 06:06:16 33° WNW 06:06:37 34° NW 06:11:44 10° NNE
ADEOS II 3.7 06:05:37 10° N 06:07:28 18° NNW 06:07:28 18° NNW
Cosmos 962 Rocket 4.4 06:04:08 10° SSW 06:10:18 64° WNW 06:16:35 10° N
ATLAS 3B R/B 3.9 06:06:36 17° NNW 06:11:21 34° NNE 06:17:24 10° E
Abrixas rocket 2.2 06:11:18 59° WSW 06:11:50 77° S 06:15:12 10° E
Cosmos 1867 4.5 06:09:55 18° NNW 06:13:41 43° NE 06:18:52 10° ESE
Cosmos 1727 Rocket 4.2 06:08:38 10° N 06:14:50 75° E 06:21:03 10° SSE
Meteor 1-5 Rocket 4.0 06:12:12 10° SSW 06:17:31 82° W 06:22:52 10° N
SL-24 DEB 4.3 06:14:24 10° S 06:19:06 57° W 06:23:51 10° NNW
Cosmos 1515 4.0 06:15:59 10° N 06:19:51 67° E 06:23:38 10° SSE
Cosmos 1943 Rocket 2.5 06:19:13 28° WNW 06:21:33 42° WSW 06:26:42 10° S
Cosmos 44 Rocket 4.0 06:20:09 30° WNW 06:21:34 36° NW 06:26:15 10° NNE
Cosmos 1452 Rocket 4.5 06:21:45 26° W 06:21:52 26° W 06:26:09 10° SSW
Cosmos 1110 Rocket 4.2 06:17:44 12° NNW 06:22:39 71° ENE 06:27:50 10° SSE
CSL-04 DEB 4.3 06:21:40 10° N 06:25:45 71° WNW 06:29:55 10° SSW
Cosmos 1943 3.4 06:21:04 12° SW 06:26:06 46° NW 06:31:34 10° NNE
Cosmos 1602 Rocket 4.0 06:22:16 10° N 06:26:44 63° ENE 06:31:09 10° SSE
USA 129 3.0 06:26:09 10° S 06:27:29 31° S 06:27:29 31° S
Helios 1B rocket 3.0 06:24:42 10° SSE 06:28:48 60° ENE 06:32:54 10° N
Meteor 2-19 Rocket 4.4 06:23:14 10° SSW 06:29:21 82° W 06:35:29 10° N
Cosmos 2341 Rocket 4.2 06:26:04 10° SW 06:32:03 46° WNW 06:38:02 10° N
Cosmos 1544 Rocket 3.5 06:30:10 10° SSW 06:34:30 66° WNW 06:38:56 10° N
IDEFIX/ARIANE 42P 3.5 06:30:26 10° NNE 06:35:30 50° E 06:40:34 10° S
Cosmos 158 Rocket 4.2 06:30:56 10° SSW 06:36:16 79° ESE 06:41:42 10° NNE
Cosmos 864 Rocket 4.5 06:30:33 10° S 06:36:43 89° W 06:42:58 10° N
Cosmos 1656 Rocket 3.7 06:33:08 15° NW 06:37:50 66° WSW 06:43:26 10° SSE
CZ-4C R/B 3.5 06:35:12 13° NW 06:41:02 47° NE 06:48:19 10° ESE
COSMO-SKYMED 1 3.8 06:39:17 10° SW 06:42:34 21° W 06:42:59 21° W
SL-24 R/B 4.5 06:37:36 10° N 06:42:51 55° WNW 06:47:19 10° SSW
Cosmos 1461 3.1 06:38:44 10° SSW 06:43:00 74° SE 06:47:07 10° NE
Cosmos 1536 4.0 06:44:06 22° WNW 06:44:06 22° WNW 06:46:52 10° NNW
Okean 2 4.3 06:43:45 20° NW 06:45:33 27° W 06:49:04 10° SSW
CZ-2C R/B 3.0 06:40:59 10° NNE 06:46:08 65° ESE 06:51:07 10° S
PAYLOAD A 4.2 06:41:20 10° NNE 06:46:46 90° W 06:52:13 10° SSW
Cosmos 1339 Rocket 4.5 06:43:24 10° NNW 06:49:34 71° W 06:55:49 10° S
Cosmos 1500 3.2 06:47:18 10° S 06:51:03 84° E 06:54:52 10° N
SOZ 4.0 06:50:50 33° WNW 06:51:27 50° NNW 06:53:37 10° ENE
Lacrosse 5 2.4 06:50:03 17° W 06:53:35 41° NNW 06:58:25 10° NE
SL-16 R/B 4.1 06:52:57 11° NW 06:54:01 12° NNW 06:55:56 10° N
Cosmos 1743 3.9 06:51:25 10° SSE 06:55:11 46° E 06:58:57 10° NNE
Cosmos 1302 Rocket 4.3 06:50:33 10° NNW 06:55:51 72° ENE 07:01:08 10° SSE
CZ-4 R/B 1.2 06:52:00 10° NNE 06:55:57 81° WNW 06:59:50 10° SSW
Cosmos 2084 3.3 06:53:29 10° WSW 06:57:13 49° NW 07:00:56 10° NE
USA 229 DEB 3.8 06:50:49 10° WSW 06:57:38 61° NW 07:04:37 10° NE
USA 229 3.8 06:50:55 10° WSW 06:57:44 62° NW 07:04:42 10° NE
Cosmos 1340 4.1 06:57:02 17° WNW 06:57:47 18° W 07:00:25 10° SW
Cosmos 2278 4.4 06:54:42 10° NNW 07:00:16 54° NE 07:05:48 10° SE
Cosmos 2322 Rocket 4.4 06:58:55 10° N 07:01:25 13° NNE 07:03:52 10° NE
Cosmos 1980 Rocket 4.1 06:57:16 10° N 07:01:30 21° NE 07:05:43 10° E
SMAP 3.1 06:57:15 10° NNE 07:01:57 84° ESE 07:06:37 10° SSW
Cosmos 1825 Rocket 4.5 06:57:39 10° N 07:02:01 51° ENE 07:06:19 10° SSE
Cosmos 44 4.2 06:58:04 11° W 07:02:31 31° NW 07:07:01 10° NNE
Lacrosse 5 rocket 1.8 07:01:22 14° NW 07:04:58 60° NNE 07:09:27 10° ESE
Cosmos 1626 Rocket 3.8 07:02:54 10° NNW 07:07:12 50° W 07:11:26 10° S
Meteor 2-15 4.5 07:02:22 10° N 07:08:31 88° W 07:14:36 10° S
Cosmos 405 Rocket 2.6 07:04:55 10° NNW 07:08:43 73° W 07:12:26 10° S
Cosmos 1269 Rocket 4.4 07:05:46 10° SW 07:10:44 40° WNW 07:15:44 10° NNE
Cosmos 1066 Rocket 4.2 07:05:58 10° NNW 07:11:17 60° W 07:16:41 10° S
NOSS 3-1 (A) 3.9 07:06:10 10° SSW 07:12:04 70° SE 07:18:44 10° NE
Meteor 1-12 Rocket 4.2 07:06:46 10° SSW 07:12:20 62° WNW 07:17:59 10° N
CSL-04 Rocket 4.1 07:07:28 10° N 07:12:38 41° WNW 07:17:45 10° SW
USA 215 3.3 07:10:02 10° NE 07:16:36 86° NNW 07:23:08 10° WSW
IRS-1A Rocket 4.5 07:13:20 10° N 07:18:53 53° WNW 07:24:31 10° SW
Ariane Rocket 3.8 07:14:50 10° N 07:19:07 28° WNW 07:23:23 10° WSW
MONITOR-E 4.3 07:16:48 10° NNE 07:20:01 86° E 07:23:13 10° SSW
AQUARIUS 4.2 07:17:40 10° N 07:22:08 62° WNW 07:26:34 10° SSW
SJ-12 4.2 07:18:49 10° N 07:22:51 48° WNW 07:26:50 10° SW
Cosmos 1455 Rocket 3.9 07:19:39 10° SW 07:23:24 28° WNW 07:27:12 10° N
Cosmos 1331 Rocket 4.4 07:19:52 10° NW 07:24:43 42° WSW 07:29:32 10° S
Cosmos 2251 Rocket 3.6 07:21:59 10° SSW 07:27:22 80° WNW 07:32:47 10° NNE
Meteor 2-21 4.5 07:22:19 10° SSW 07:28:28 66° WNW 07:34:41 10° N
COSMOS 2487 3.6 07:25:48 10° S 07:29:17 51° ESE 07:32:47 10° NNE
Meteor 1-29 3.7 07:26:33 10° SSW 07:29:38 33° W 07:32:45 10° NNW
Cosmos 1975 3.6 07:28:00 10° SW 07:31:39 31° WNW 07:35:20 10° N
Cosmos 1697 Rocket 3.7 07:27:35 10° NNW 07:33:02 44° NE 07:38:26 10° SE
SL-16 R/B 4.3 07:29:35 10° N 07:33:14 17° NE 07:36:53 10° ENE
CORIOLIS 4.1 07:28:45 10° N 07:34:05 68° WNW 07:39:23 10° SSW
ATLAS 5 CENTAUR R/B 2.6 07:30:52 10° NW 07:36:42 69° NE 07:43:02 10° SE
CENTAUR R/B 4.1 07:31:33 10° NW 07:37:27 27° N 07:43:53 10° ENE
Cosmos 1656 4.2 07:32:04 10° NNW 07:37:41 60° ENE 07:43:20 10° SE
Cosmos 2123 Rocket 4.2 07:32:09 10° N 07:38:26 84° E 07:44:39 10° S
